| time (UTC) | temp C | wind direction | speed KPH | gust KPH | rain 1hr cm | rain 24hr cm | rain mn cm | humidity % | barometer mb |
| 20260507161712 | -17 | 0.0 | 0.0 | 0.00 | 0.00 | 0.00 | 1014.4 | ||
| 20260507161209 | -17 | 0.0 | 0.0 | 0.00 | 0.00 | 0.00 | 1014.4 | ||
| 20260507160707 | -17 | 0.0 | 0.0 | 0.00 | 0.00 | 0.00 | 1014.4 | ||
| 20260507160201 | -17 | 0.0 | 0.0 | 0.00 | 0.00 | 0.00 | 1014.4 | ||
| 20260507155033 | -17 | 0.0 | 0.0 | 0.00 | 0.00 | 0.00 | 1014.6 | ||
| 20260507154454 | -17 | 0.0 | 0.0 | 0.00 | 0.00 | 0.00 | 1014.6 | ||
| 20260507152908 | -17 | 0.0 | 0.0 | 0.00 | 0.00 | 0.00 | 1014.5 | ||
| 20260507152330 | -17 | 0.0 | 0.0 | 0.00 | 0.00 | 0.00 | 1014.5 | ||
| 20260507151828 | -17 | 0.0 | 0.0 | 0.00 | 0.00 | 0.00 | 1014.7 | ||
| 20260507151316 | -17 | 0.0 | 0.0 | 0.00 | 0.00 | 0.00 | 1014.7 | ||
| 20260507150735 | -17 | 0.0 | 0.0 | 0.00 | 0.00 | 0.00 | 1014.7 | ||
| 20260507150201 | -17 | 0.0 | 0.0 | 0.00 | 0.00 | 0.00 | 1014.8 | ||
| 20260507145623 | -17 | 0.0 | 0.0 | 0.00 | 0.00 | 0.00 | 1014.8 | ||
| 20260507143413 | -17 | 0.0 | 0.0 | 0.00 | 0.00 | 0.00 | 1015.0 | ||
| 20260507142832 | -17 | 0.0 | 0.0 | 0.00 | 0.00 | 0.00 | 1015.0 | ||
| 20260507142242 | -17 | 110 | 17.7 | 16.1 | 0.00 | 0.00 | 0.00 | 1015.0 | |
| 20260507141121 | -17 | 110 | 17.7 | 16.1 | 0.00 | 0.00 | 0.00 | 1015.0 | |
| 20260507140551 | -17 | 110 | 17.7 | 16.1 | 0.00 | 0.00 | 0.00 | 1015.1 | |
| 20260507140008 | -17 | 101 | 17.7 | 16.1 | 0.00 | 0.00 | 0.00 | 1015.1 | |
| 20260507135458 | -17 | 101 | 17.7 | 16.1 | 0.00 | 0.00 | 0.00 | 1015.1 | |
| 20260507134948 | -17 | 110 | 16.1 | 19.3 | 0.00 | 0.00 | 0.00 | 1015.2 | |
| 20260507134440 | -17 | 110 | 16.1 | 22.5 | 0.00 | 0.00 | 0.00 | 1015.2 | |
| 20260507133923 | -17 | 107 | 16.1 | 22.5 | 0.00 | 0.00 | 0.00 | 1015.2 | |
| 20260507133354 | -17 | 111 | 16.1 | 20.9 | 0.00 | 0.00 | 0.00 | 1015.3 | |
| 20260507132852 | -17 | 129 | 16.1 | 19.3 | 0.00 | 0.00 | 0.00 | 1015.3 | |
| 20260507131831 | -17 | 79 | 19.3 | 16.1 | 0.00 | 0.00 | 0.00 | 1015.4 | |
| 20260507131320 | -17 | 79 | 19.3 | 16.1 | 0.00 | 0.00 | 0.00 | 1015.4 | |
| 20260507130249 | -17 | 79 | 19.3 | 19.3 | 0.00 | 0.00 | 0.00 | 1015.4 | |
| 20260507125701 | -17 | 100 | 19.3 | 19.3 | 0.00 | 0.00 | 0.00 | 1015.4 | |
| 20260507125129 | -17 | 87 | 19.3 | 19.3 | 0.00 | 0.00 | 0.00 | 1015.4 | |
| 20260507124625 | -17 | 102 | 19.3 | 19.3 | 0.00 | 0.00 | 0.00 | 1015.4 | |
| 20260507124050 | -17 | 93 | 19.3 | 19.3 | 0.00 | 0.00 | 0.00 | 1015.4 | |
| 20260507123550 | -17 | 109 | 19.3 | 25.7 | 0.00 | 0.00 | 0.00 | 1015.5 | |
| 20260507123050 | -17 | 109 | 19.3 | 25.7 | 0.00 | 0.00 | 0.00 | 1015.5 | |
| 20260507122524 | -17 | 103 | 19.3 | 25.7 | 0.00 | 0.00 | 0.00 | 1015.5 | |
| 20260507121948 | -17 | 103 | 19.3 | 25.7 | 0.00 | 0.00 | 0.00 | 1015.7 | |
| 20260507121421 | -17 | 123 | 19.3 | 25.7 | 0.00 | 0.00 | 0.00 | 1015.7 | |
| 20260507120923 | -17 | 96 | 17.7 | 27.4 | 0.00 | 0.00 | 0.00 | 1015.7 | |
| 20260507120410 | -17 | 95 | 17.7 | 25.7 | 0.00 | 0.00 | 0.00 | 1015.8 | |
| 20260507115911 | -17 | 94 | 17.7 | 22.5 | 0.00 | 0.00 | 0.00 | 1015.8 | |
| 20260507114835 | -17 | 101 | 17.7 | 24.1 | 0.00 | 0.00 | 0.00 | 1015.8 | |
| 20260507114252 | -17 | 101 | 17.7 | 24.1 | 0.00 | 0.00 | 0.00 | 1015.8 | |
| 20260507113733 | -17 | 102 | 17.7 | 24.1 | 0.00 | 0.00 | 0.00 | 1015.9 | |
| 20260507113222 | -17 | 101 | 17.7 | 24.1 | 0.00 | 0.00 | 0.00 | 1015.9 | |
| 20260507112718 | -17 | 99 | 16.1 | 24.1 | 0.00 | 0.00 | 0.00 | 1015.9 | |
| 20260507111630 | -17 | 85 | 16.1 | 24.1 | 0.00 | 0.00 | 0.00 | 1015.8 | |
| 20260507110627 | -17 | 130 | 17.7 | 24.1 | 0.00 | 0.00 | 0.00 | 1015.8 | |
| 20260507110127 | -17 | 105 | 16.1 | 24.1 | 0.00 | 0.00 | 0.00 | 1015.8 | |
| 20260507105627 | -17 | 97 | 14.5 | 22.5 | 0.00 | 0.00 | 0.00 | 1015.8 | |
| 20260507105126 | -17 | 87 | 14.5 | 19.3 | 0.00 | 0.00 | 0.00 | 1015.8 | |
| 20260507104548 | -17 | 87 | 14.5 | 19.3 | 0.00 | 0.00 | 0.00 | 1015.8 | |
| 20260507104016 | -17 | 106 | 14.5 | 20.9 | 0.00 | 0.00 | 0.00 | 1015.8 | |
| 20260507103433 | -17 | 106 | 14.5 | 20.9 | 0.00 | 0.00 | 0.00 | 1016.1 | |
| 20260507102927 | -17 | 87 | 12.9 | 19.3 | 0.00 | 0.00 | 0.00 | 1016.1 | |
| 20260507101922 | -17 | 85 | 12.9 | 17.7 | 0.00 | 0.00 | 0.00 | 1016.0 | |
| 20260507101418 | -17 | 100 | 12.9 | 16.1 | 0.00 | 0.00 | 0.00 | 1016.0 | |
| 20260507095759 | -17 | 95 | 12.9 | 17.7 | 0.00 | 0.00 | 0.00 | 1016.1 | |
| 20260507094801 | -17 | 82 | 12.9 | 16.1 | 0.00 | 0.00 | 0.00 | 1016.1 | |
| 20260507094247 | -17 | 106 | 9.7 | 16.1 | 0.00 | 0.00 | 0.00 | 1016.1 | |
| 20260507093239 | -17 | 91 | 11.3 | 16.1 | 0.00 | 0.00 | 0.00 | 1016.2 | |
| 20260507092716 | -17 | 84 | 11.3 | 16.1 | 0.00 | 0.00 | 0.00 | 1016.2 | |
| 20260507092217 | -17 | 101 | 11.3 | 14.5 | 0.00 | 0.00 | 0.00 | 1016.3 | |
| 20260507091648 | -17 | 101 | 11.3 | 14.5 | 0.00 | 0.00 | 0.00 | 1016.3 | |
| 20260507091125 | -17 | 73 | 11.3 | 17.7 | 0.00 | 0.00 | 0.00 | 1016.3 | |
| 20260507090613 | -17 | 79 | 11.3 | 17.7 | 0.00 | 0.00 | 0.00 | 1016.3 | |
| 20260507090112 | -17 | 76 | 11.3 | 17.7 | 0.00 | 0.00 | 0.00 | 1016.3 | |
| 20260507085104 | -17 | 88 | 9.7 | 16.1 | 0.00 | 0.00 | 0.00 | 1016.4 | |
| 20260507083548 | -17 | 0.0 | 0.0 | 0.00 | 0.00 | 0.00 | 1016.3 | ||
| 20260507083028 | -17 | 0.0 | 0.0 | 0.00 | 0.00 | 0.00 | 1016.3 | ||
| 20260507081928 | -17 | 86 | 8.0 | 9.7 | 0.00 | 0.00 | 0.00 | 1016.3 | |
| 20260507081426 | -17 | 86 | 8.0 | 9.7 | 0.00 | 0.00 | 0.00 | 1016.3 | |
| 20260507080907 | -17 | 86 | 8.0 | 11.3 | 0.00 | 0.00 | 0.00 | 1016.3 | |
| 20260507080405 | -17 | 86 | 8.0 | 11.3 | 0.00 | 0.00 | 0.00 | 1016.3 | |
| 20260507075857 | -17 | 81 | 8.0 | 11.3 | 0.00 | 0.00 | 0.00 | 1016.3 | |
| 20260507075332 | -17 | 0.0 | 0.0 | 0.00 | 0.00 | 0.00 | 1016.3 | ||
| 20260507074800 | -17 | 0.0 | 0.0 | 0.00 | 0.00 | 0.00 | 1016.4 | ||
| 20260507074242 | -17 | 78 | 8.0 | 8.0 | 0.00 | 0.00 | 0.00 | 1016.4 | |
| 20260507073150 | -17 | 78 | 8.0 | 9.7 | 0.00 | 0.00 | 0.00 | 1016.3 | |
| 20260507072645 | -17 | 78 | 8.0 | 9.7 | 0.00 | 0.00 | 0.00 | 1016.3 | |
| 20260507071634 | -17 | 0.0 | 0.0 | 0.00 | 0.00 | 0.00 | 1016.3 | ||
| 20260507071129 | -17 | 0.0 | 0.0 | 0.00 | 0.00 | 0.00 | 1016.3 | ||
| 20260507070111 | -17 | 0.0 | 0.0 | 0.00 | 0.00 | 0.00 | 1016.4 | ||
| 20260507065610 | -17 | 0.0 | 0.0 | 0.00 | 0.00 | 0.00 | 1016.4 | ||
| 20260507064600 | -17 | 0.0 | 0.0 | 0.00 | 0.00 | 0.00 | 1016.5 | ||
| 20260507063554 | -17 | 0.0 | 0.0 | 0.00 | 0.00 | 0.00 | 1016.5 | ||
| 20260507063047 | -17 | 0.0 | 0.0 | 0.00 | 0.00 | 0.00 | 1016.5 | ||
| 20260507062505 | -17 | 0.0 | 0.0 | 0.00 | 0.00 | 0.00 | 1016.5 | ||
| 20260507061928 | -17 | 0.0 | 0.0 | 0.00 | 0.00 | 0.00 | 1016.5 | ||
| 20260507061345 | -17 | 0.0 | 0.0 | 0.00 | 0.00 | 0.00 | 1016.5 | ||
| 20260507060805 | -17 | 0.0 | 0.0 | 0.00 | 0.00 | 0.00 | 1016.5 | ||
| 20260507060257 | -17 | 0.0 | 0.0 | 0.00 | 0.00 | 0.00 | 1016.5 | ||
| 20260507055719 | -17 | 0.0 | 0.0 | 0.00 | 0.00 | 0.00 | 1016.5 | ||
| 20260507055204 | -17 | 0.0 | 0.0 | 0.00 | 0.00 | 0.00 | 1016.3 | ||
| 20260507054627 | -17 | 0.0 | 0.0 | 0.00 | 0.00 | 0.00 | 1016.3 | ||
| 20260507054047 | -17 | 0.0 | 0.0 | 0.00 | 0.00 | 0.00 | 1016.3 | ||
| 20260507053506 | -17 | 0.0 | 0.0 | 0.00 | 0.00 | 0.00 | 1016.2 | ||
| 20260507052927 | -17 | 0.0 | 0.0 | 0.00 | 0.00 | 0.00 | 1016.2 | ||
| 20260507052338 | -17 | 0.0 | 0.0 | 0.00 | 0.00 | 0.00 | 1016.2 | ||
| 20260507051757 | -17 | 0.0 | 0.0 | 0.00 | 0.00 | 0.00 | 1016.2 | ||
| 20260507050627 | -17 | 0.0 | 0.0 | 0.00 | 0.00 | 0.00 | 1016.1 | ||
| 20260507050115 | -17 | 0.0 | 0.0 | 0.00 | 0.00 | 0.00 | 1016.1 | ||
| 20260507045523 | -17 | 0.0 | 0.0 | 0.00 | 0.00 | 0.00 | 1016.1 | ||
| 20260507044957 | -17 | 0.0 | 0.0 | 0.00 | 0.00 | 0.00 | 1015.9 | ||
| 20260507044410 | -17 | 0.0 | 0.0 | 0.00 | 0.00 | 0.00 | 1015.9 | ||
| 20260507043832 | -17 | 0.0 | 0.0 | 0.00 | 0.00 | 0.00 | 1015.9 | ||
| 20260507043322 | -17 | 0.0 | 0.0 | 0.00 | 0.00 | 0.00 | 1015.7 | ||
| 20260507042744 | -17 | 0.0 | 0.0 | 0.00 | 0.00 | 0.00 | 1015.7 | ||
| 20260507042236 | -17 | 0.0 | 0.0 | 0.00 | 0.00 | 0.00 | 1015.7 | ||
| 20260507041700 | -17 | 0.0 | 0.0 | 0.00 | 0.00 | 0.00 | 1015.6 | ||
| 20260507040549 | -17 | 0.0 | 0.0 | 0.00 | 0.00 | 0.00 | 1015.5 | ||
| 20260507040008 | -17 | 0.0 | 0.0 | 0.00 | 0.00 | 0.00 | 1015.5 | ||
| 20260507035427 | -17 | 0.0 | 0.0 | 0.00 | 0.00 | 0.00 | 1015.5 | ||
| 20260507034905 | -17 | 0.0 | 0.0 | 0.00 | 0.00 | 0.00 | 1015.4 | ||
| 20260507034314 | -17 | 0.0 | 0.0 | 0.00 | 0.00 | 0.00 | 1015.4 | ||
| 20260507033735 | -17 | 0.0 | 0.0 | 0.00 | 0.00 | 0.00 | 1015.4 | ||
| 20260507032649 | -17 | 0.0 | 0.0 | 0.00 | 0.00 | 0.00 | 1015.1 | ||
| 20260507031603 | -17 | 0.0 | 0.0 | 0.00 | 0.00 | 0.00 | 1015.1 | ||
| 20260507031024 | -17 | 0.0 | 0.0 | 0.00 | 0.00 | 0.00 | 1015.1 | ||
| 20260507025332 | -17 | 0.0 | 0.0 | 0.00 | 0.00 | 0.00 | 1015.0 | ||
| 20260507024252 | -17 | 0.0 | 0.0 | 0.00 | 0.00 | 0.00 | 1015.0 | ||
| 20260507023735 | -17 | 0.0 | 0.0 | 0.00 | 0.00 | 0.00 | 1015.0 | ||
| 20260507022620 | -17 | 0.0 | 0.0 | 0.00 | 0.00 | 0.00 | 1014.9 | ||
| 20260507022117 | -17 | 0.0 | 0.0 | 0.00 | 0.00 | 0.00 | 1015.0 | ||
| 20260507021538 | -17 | 0.0 | 0.0 | 0.00 | 0.00 | 0.00 | 1015.0 | ||
| 20260507020958 | -17 | 0.0 | 0.0 | 0.00 | 0.00 | 0.00 | 1015.0 | ||
| 20260507020418 | -17 | 0.0 | 0.0 | 0.00 | 0.00 | 0.00 | 1015.0 | ||
| 20260507015911 | -17 | 0.0 | 0.0 | 0.00 | 0.00 | 0.00 | 1015.0 | ||
| 20260507015332 | -17 | 0.0 | 0.0 | 0.00 | 0.00 | 0.00 | 1015.0 | ||
| 20260507014832 | -17 | 0.0 | 0.0 | 0.00 | 0.00 | 0.00 | 1014.9 | ||
| 20260507014252 | -17 | 0.0 | 0.0 | 0.00 | 0.00 | 0.00 | 1014.9 | ||
| 20260507013753 | -17 | 0.0 | 0.0 | 0.00 | 0.00 | 0.00 | 1014.9 | ||
| 20260507013247 | -17 | 0.0 | 0.0 | 0.00 | 0.00 | 0.00 | 1014.9 | ||
| 20260507012719 | -17 | 0.0 | 0.0 | 0.00 | 0.00 | 0.00 | 1014.9 | ||
| 20260507012141 | -17 | 0.0 | 0.0 | 0.00 | 0.00 | 0.00 | 1014.9 | ||
| 20260507011551 | -17 | 0.0 | 0.0 | 0.00 | 0.00 | 0.00 | 1014.9 | ||
| 20260507005911 | -17 | 0.0 | 0.0 | 0.00 | 0.00 | 0.00 | 1014.9 | ||
| 20260507005332 | -17 | 0.0 | 0.0 | 0.00 | 0.00 | 0.00 | 1014.9 | ||
| 20260507004750 | -17 | 0.0 | 0.0 | 0.00 | 0.00 | 0.00 | 1015.0 | ||
| 20260507003649 | -17 | 0.0 | 0.0 | 0.00 | 0.00 | 0.00 | 1015.0 | ||
| 20260507002628 | -17 | 0.0 | 0.0 | 0.00 | 0.00 | 0.00 | 1015.0 | ||
| 20260507001533 | -17 | 0.0 | 0.0 | 0.00 | 0.00 | 0.00 | 1015.0 | ||
| 20260506231626 | -17 | 0.0 | 0.0 | 0.00 | 0.00 | 0.00 | 1015.3 | ||
| 20260506230523 | -17 | 0.0 | 0.0 | 0.00 | 0.00 | 0.00 | 1015.3 | ||
| 20260506230018 | -17 | 0.0 | 0.0 | 0.00 | 0.00 | 0.00 | 1015.3 | ||
| 20260506225425 | -17 | 0.0 | 0.0 | 0.00 | 0.00 | 0.00 | 1015.3 | ||
| 20260506224848 | -17 | 0.0 | 0.0 | 0.00 | 0.00 | 0.00 | 1015.2 | ||
| 20260506224311 | -17 | 0.0 | 0.0 | 0.00 | 0.00 | 0.00 | 1015.2 | ||
| 20260506223730 | -17 | 0.0 | 0.0 | 0.00 | 0.00 | 0.00 | 1015.2 | ||
| 20260506223219 | -17 | 0.0 | 0.0 | 0.00 | 0.00 | 0.00 | 1015.3 | ||
| 20260506222114 | -17 | 0.0 | 0.0 | 0.00 | 0.00 | 0.00 | 1015.3 | ||
| 20260506221534 | -17 | 0.0 | 0.0 | 0.00 | 0.00 | 0.00 | 1015.3 | ||
| 20260506221022 | -17 | 0.0 | 0.0 | 0.00 | 0.00 | 0.00 | 1015.3 | ||
| 20260506220441 | -17 | 0.0 | 0.0 | 0.00 | 0.00 | 0.00 | 1015.3 | ||
| 20260506215901 | -17 | 0.0 | 0.0 | 0.00 | 0.00 | 0.00 | 1015.3 | ||
| 20260506215311 | -17 | 0.0 | 0.0 | 0.00 | 0.00 | 0.00 | 1015.3 | ||
| 20260506213745 | -17 | 0.0 | 0.0 | 0.00 | 0.00 | 0.00 | 1015.4 | ||
| 20260506212229 | -17 | 0.0 | 0.0 | 0.00 | 0.00 | 0.00 | 1015.4 | ||
| 20260506211727 | -17 | 0.0 | 0.0 | 0.00 | 0.00 | 0.00 | 1015.4 | ||
| 20260506211219 | -17 | 0.0 | 0.0 | 0.00 | 0.00 | 0.00 | 1015.4 | ||
| 20260506210716 | -17 | 0.0 | 0.0 | 0.00 | 0.00 | 0.00 | 1015.4 | ||
| 20260506210217 | -17 | 0.0 | 0.0 | 0.00 | 0.00 | 0.00 | 1015.4 | ||
| 20260506205712 | -17 | 0.0 | 0.0 | 0.00 | 0.00 | 0.00 | 1015.4 | ||
| 20260506205205 | -17 | 0.0 | 0.0 | 0.00 | 0.00 | 0.00 | 1015.4 | ||
| 20260506204658 | -17 | 0.0 | 0.0 | 0.00 | 0.00 | 0.00 | 1015.4 | ||
| 20260506204153 | -17 | 0.0 | 0.0 | 0.00 | 0.00 | 0.00 | 1015.4 | ||
| 20260506203601 | -17 | 0.0 | 0.0 | 0.00 | 0.00 | 0.00 | 1015.4 | ||
| 20260506203056 | -17 | 0.0 | 0.0 | 0.00 | 0.00 | 0.00 | 1015.4 | ||
| 20260506202537 | -17 | 0.0 | 0.0 | 0.00 | 0.00 | 0.00 | 1015.4 | ||
| 20260506202036 | -17 | 0.0 | 0.0 | 0.00 | 0.00 | 0.00 | 1015.4 | ||
| 20260506201511 | -17 | 0.0 | 0.0 | 0.00 | 0.00 | 0.00 | 1015.5 | ||
| 20260506200917 | -17 | 0.0 | 0.0 | 0.00 | 0.00 | 0.00 | 1015.5 | ||
| 20260506200403 | -17 | 0.0 | 0.0 | 0.00 | 0.00 | 0.00 | 1015.5 | ||
| 20260506195825 | -17 | 0.0 | 0.0 | 0.00 | 0.00 | 0.00 | 1015.5 | ||
| 20260506195319 | -17 | 0.0 | 0.0 | 0.00 | 0.00 | 0.00 | 1015.5 | ||
| 20260506194808 | -17 | 0.0 | 0.0 | 0.00 | 0.00 | 0.00 | 1015.2 | ||
| 20260506194304 | -17 | 0.0 | 0.0 | 0.00 | 0.00 | 0.00 | 1015.2 | ||
| 20260506193759 | -17 | 0.0 | 0.0 | 0.00 | 0.00 | 0.00 | 1015.2 | ||
| 20260506192729 | -17 | 0.0 | 0.0 | 0.00 | 0.00 | 0.00 | 1015.1 | ||
| 20260506192137 | -17 | 0.0 | 0.0 | 0.00 | 0.00 | 0.00 | 1015.1 | ||
| 20260506191633 | -17 | 0.0 | 0.0 | 0.00 | 0.00 | 0.00 | 1014.9 | ||
| 20260506191117 | -17 | 0.0 | 0.0 | 0.00 | 0.00 | 0.00 | 1014.9 | ||
| 20260506190536 | -17 | 0.0 | 0.0 | 0.00 | 0.00 | 0.00 | 1014.9 | ||
| 20260506190025 | -17 | 0.0 | 0.0 | 0.00 | 0.00 | 0.00 | 1014.8 | ||
| 20260506185017 | -17 | 0.0 | 0.0 | 0.00 | 0.00 | 0.00 | 1014.8 | ||
| 20260506184454 | -17 | 0.0 | 0.0 | 0.00 | 0.00 | 0.00 | 1014.7 | ||
| 20260506183902 | -17 | 0.0 | 0.0 | 0.00 | 0.00 | 0.00 | 1014.7 | ||
| 20260506183356 | -17 | 0.0 | 0.0 | 0.00 | 0.00 | 0.00 | 1014.7 | ||
| 20260506182850 | -17 | 0.0 | 0.0 | 0.00 | 0.00 | 0.00 | 1014.7 | ||
| 20260506182327 | -17 | 0.0 | 0.0 | 0.00 | 0.00 | 0.00 | 1014.7 | ||
| 20260506181744 | -17 | 0.0 | 0.0 | 0.00 | 0.00 | 0.00 | 1014.6 | ||
| 20260506181239 | -17 | 0.0 | 0.0 | 0.00 | 0.00 | 0.00 | 1014.6 | ||
| 20260506180731 | -17 | 0.0 | 0.0 | 0.00 | 0.00 | 0.00 | 1014.6 | ||
| 20260506180212 | -17 | 0.0 | 0.0 | 0.00 | 0.00 | 0.00 | 1014.5 | ||
| 20260506175711 | -17 | 0.0 | 0.0 | 0.00 | 0.00 | 0.00 | 1014.5 | ||
| 20260506175133 | -17 | 0.0 | 0.0 | 0.00 | 0.00 | 0.00 | 1014.5 | ||
| 20260506174608 | -17 | 0.0 | 0.0 | 0.00 | 0.00 | 0.00 | 1014.3 | ||
| 20260506174050 | -17 | 0.0 | 0.0 | 0.00 | 0.00 | 0.00 | 1014.3 | ||
| 20260506173502 | -17 | 0.0 | 0.0 | 0.00 | 0.00 | 0.00 | 1014.3 | ||
| 20260506172443 | -17 | 0.0 | 0.0 | 0.00 | 0.00 | 0.00 | 1014.2 | ||
| 20260506171404 | -17 | 0.0 | 0.0 | 0.00 | 0.00 | 0.00 | 1014.3 | ||
| 20260506170822 | -17 | 95 | 8.0 | 11.3 | 0.00 | 0.00 | 0.00 | 1014.3 | |
| 20260506170304 | -17 | 95 | 8.0 | 11.3 | 0.00 | 0.00 | 0.00 | 1014.3 | |
| 20260506165719 | -17 | 95 | 8.0 | 11.3 | 0.00 | 0.00 | 0.00 | 1014.3 | |
| 20260506165211 | -17 | 95 | 8.0 | 11.3 | 0.00 | 0.00 | 0.00 | 1014.3 | |
| 20260506164702 | -17 | 89 | 8.0 | 14.5 | 0.00 | 0.00 | 0.00 | 1014.3 | |
| 20260506164155 | -17 | 96 | 9.7 | 14.5 | 0.00 | 0.00 | 0.00 | 1014.3 | |
| 20260506163146 | -17 | 93 | 11.3 | 9.7 | 0.00 | 0.00 | 0.00 | 1014.3 |